Bellefontaine, OH

7:18 PM EST on November 18, 2017 (GMT -0500)
Bellefontaine

Weather History for KEDJ - April, 2013

Change the Weather History Date:

Wednesday, April 24, 2013

  Actual Average (KDLZ) Record (KDLZ)
Temperature  
Mean Temperature 48 °F -  
Max Temperature 60 °F 64 °F 89 °F (1960)
Min Temperature 35 °F 42 °F 26 °F (2015)
Degree Days  
Heating Degree Days 18    
Moisture  
Dew Point 40 °F    
Average Humidity 92    
Maximum Humidity 100    
Minimum Humidity 63    
Precipitation  
Precipitation 0.35 in - - ()
Sea Level Pressure  
Sea Level Pressure 29.94 in    
Wind  
Wind Speed 12 mph (WNW)    
Max Wind Speed 18 mph    
Max Gust Speed 31 mph    
Visibility 7 miles    
Events      
Averages and records for this station are not official NWS values.
T = Trace of Precipitation, MM = Missing Value Source: NWS Daily Summary

Daily Weather History Graph

Daily Weather History Graph

Search for Another Location

Airport or City:

Trip Planner

Search our weather history database for the weather conditions in past years. The results will help you decide how hot, cold, wet, or windy it might be!

Date:

Astronomy

Apr. 24, 2013 Rise Set
Actual Time 6:43 AM EDT 8:23 PM EDT
Civil Twilight 6:14 AM EDT 8:52 PM EDT
Nautical Twilight 5:39 AM EDT 9:27 PM EDT
Astronomical Twilight 5:02 AM EDT 10:05 PM EDT
Moon 7:25 PM EDT (4/24) 5:46 AM EDT (4/24)
Length of Visible Light 14h 38m
Length of Day
13h 40m
Waxing Gibbous, 98% of the Moon is Illuminated
Apr 24
Waxing Gibbous
Apr 25
Full
May 2
Last Quarter
May 9
New
May 18
First Quarter

Hourly Weather History & Observations

Time (EDT) Temp. Windchill Dew Point Humidity Pressure Visibility Wind Dir Wind Speed Gust Speed Precip Events Conditions
12:05 AM 60.8 °F - 48.2 °F 63% 29.82 in 10.0 mi South 18.4 mph 24.2 mph 0.00 in   Overcast
12:25 AM 60.8 °F - 50.0 °F 68% 29.82 in 9.0 mi South 17.3 mph 24.2 mph 0.00 in   Mostly Cloudy
12:45 AM 60.8 °F - 50.0 °F 68% 29.82 in 10.0 mi South 15.0 mph 24.2 mph 0.00 in   Mostly Cloudy
1:05 AM 59.0 °F - 51.8 °F 77% 29.82 in 8.0 mi South 15.0 mph 19.6 mph 0.00 in   Mostly Cloudy
1:25 AM 57.2 °F - 53.6 °F 88% 29.83 in 3.0 mi South 12.7 mph - 0.05 in   Mostly Cloudy
7:40 AM 48.2 °F - 48.2 °F 100% 29.78 in 3.0 mi WNW 8.1 mph - 0.06 in   Overcast
7:45 AM 48.2 °F - 48.2 °F 100% 29.79 in 4.0 mi WNW 9.2 mph - 0.06 in   Overcast
8:05 AM 46.4 °F 41.9 °F 46.4 °F 100% 29.79 in 3.0 mi NW 9.2 mph - 0.01 in   Overcast
8:25 AM 46.4 °F 41.5 °F 46.4 °F 100% 29.78 in 7.0 mi NW 10.4 mph - 0.02 in   Overcast
8:45 AM 44.6 °F 40.7 °F 44.6 °F 100% 29.78 in 5.0 mi NW 6.9 mph - 0.02 in   Overcast
9:05 AM 44.6 °F 40.7 °F 44.6 °F 100% 29.81 in 5.0 mi West 6.9 mph - 0.02 in   Overcast
9:25 AM 44.6 °F 40.7 °F 44.6 °F 100% 29.79 in 5.0 mi NW 6.9 mph - 0.04 in   Overcast
9:45 AM 44.6 °F 40.2 °F 44.6 °F 100% 29.77 in 6.0 mi WNW 8.1 mph - 0.05 in   Overcast
10:05 AM 44.6 °F 39.7 °F 44.6 °F 100% 29.81 in 3.0 mi WNW 9.2 mph - 0.01 in   Overcast
10:25 AM 44.6 °F 39.2 °F 44.6 °F 100% 29.81 in 5.0 mi WNW 10.4 mph - 0.04 in   Overcast
10:45 AM 44.6 °F 39.2 °F 44.6 °F 100% 29.80 in 3.0 mi WNW 10.4 mph - 0.07 in   Overcast
11:05 AM 42.8 °F 36.6 °F 42.8 °F 100% 29.78 in 5.0 mi NNW 11.5 mph - 0.01 in   Overcast
11:25 AM 42.8 °F 38.6 °F 42.8 °F 100% 29.80 in 3.0 mi NW 6.9 mph 18.4 mph 0.05 in   Overcast
11:45 AM 42.8 °F 38.0 °F 42.8 °F 100% 29.78 in 3.0 mi North 8.1 mph - 0.09 in   Overcast
12:05 PM 42.8 °F 35.1 °F 42.8 °F 100% 29.82 in 7.0 mi NW 16.1 mph - 0.00 in   Overcast
12:25 PM 39.2 °F 31.2 °F 39.2 °F 100% 29.83 in 8.0 mi NNW 13.8 mph - 0.00 in   Overcast
12:45 PM 39.2 °F 31.2 °F 39.2 °F 100% 29.84 in 1.2 mi NW 13.8 mph 19.6 mph 0.01 in   Overcast
1:05 PM 39.2 °F 32.0 °F 39.2 °F 100% 29.87 in 1.5 mi WNW 11.5 mph 20.7 mph 0.00 in   Overcast
1:25 PM 39.2 °F 30.5 °F 39.2 °F 100% 29.89 in 1.2 mi WNW 16.1 mph 24.2 mph 0.00 in   Overcast
1:45 PM 37.4 °F 28.5 °F 37.4 °F 100% 29.89 in 2.0 mi WNW 15.0 mph 25.3 mph 0.00 in   Overcast
2:05 PM 37.4 °F 28.9 °F 37.4 °F 100% 29.89 in 5.0 mi NW 13.8 mph 25.3 mph 0.00 in   Overcast
2:25 PM 37.4 °F 27.5 °F 37.4 °F 100% 29.90 in 2.0 mi WNW 18.4 mph 31.1 mph 0.00 in   Overcast
2:45 PM 37.4 °F 27.5 °F 37.4 °F 100% 29.91 in 10.0 mi WNW 18.4 mph 25.3 mph 0.00 in   Overcast
3:05 PM 37.4 °F 27.8 °F 37.4 °F 100% 29.92 in 10.0 mi WNW 17.3 mph 28.8 mph 0.00 in   Overcast
3:25 PM 37.4 °F 27.5 °F 35.6 °F 93% 29.94 in 10.0 mi WNW 18.4 mph 25.3 mph 0.00 in   Overcast
3:45 PM 37.4 °F 28.5 °F 37.4 °F 100% 29.95 in 5.0 mi WNW 15.0 mph 25.3 mph 0.00 in   Overcast
4:05 PM 37.4 °F 28.2 °F 37.4 °F 100% 29.96 in 10.0 mi WNW 16.1 mph 24.2 mph 0.00 in   Overcast
4:25 PM 37.4 °F 28.5 °F 37.4 °F 100% 29.97 in 7.0 mi WNW 15.0 mph 26.5 mph 0.00 in   Overcast
4:45 PM 37.4 °F 28.2 °F 37.4 °F 100% 29.99 in 5.0 mi WNW 16.1 mph - 0.00 in   Overcast
5:05 PM 37.4 °F 28.2 °F 37.4 °F 100% 30.01 in 9.0 mi WNW 16.1 mph 20.7 mph 0.00 in   Overcast
5:25 PM 37.4 °F 28.9 °F 35.6 °F 93% 30.01 in 10.0 mi WNW 13.8 mph 25.3 mph 0.00 in   Overcast
5:45 PM 39.2 °F 32.0 °F 37.4 °F 93% 30.03 in 10.0 mi West 11.5 mph 17.3 mph 0.00 in   Overcast
6:05 PM 39.2 °F 31.2 °F 35.6 °F 87% 30.04 in 10.0 mi WNW 13.8 mph 21.9 mph 0.00 in   Overcast
6:25 PM 41.0 °F 34.7 °F 35.6 °F 81% 30.05 in 10.0 mi West 10.4 mph - 0.00 in   Overcast
6:45 PM 41.0 °F 35.2 °F 33.8 °F 76% 30.06 in 10.0 mi West 9.2 mph - 0.00 in   Overcast
7:05 PM 41.0 °F 34.7 °F 35.6 °F 81% 30.07 in 10.0 mi West 10.4 mph - 0.00 in   Mostly Cloudy
7:25 PM 41.0 °F 33.5 °F 33.8 °F 76% 30.08 in 10.0 mi West 13.8 mph 21.9 mph 0.00 in   Mostly Cloudy
7:45 PM 41.0 °F 33.9 °F 33.8 °F 76% 30.09 in 10.0 mi West 12.7 mph - 0.00 in   Mostly Cloudy
8:05 PM 39.2 °F 32.5 °F 32.0 °F 75% 30.10 in 10.0 mi West 10.4 mph - 0.00 in   Scattered Clouds
8:25 PM 39.2 °F 34.2 °F 32.0 °F 75% 30.11 in 10.0 mi West 6.9 mph - 0.00 in   Clear
8:45 PM 37.4 °F 32.8 °F 32.0 °F 81% 30.11 in 10.0 mi West 5.8 mph - 0.00 in   Clear
9:05 PM 37.4 °F 32.8 °F 32.0 °F 81% 30.13 in 10.0 mi West 5.8 mph - 0.00 in   Clear
9:25 PM 35.6 °F 30.7 °F 32.0 °F 87% 30.14 in 10.0 mi West 5.8 mph - 0.00 in   Clear
9:45 PM 35.6 °F 31.7 °F 32.0 °F 87% 30.15 in 10.0 mi West 4.6 mph - 0.00 in   Clear
10:45 PM 35.6 °F - 32.0 °F 87% 30.17 in 10.0 mi Calm Calm - 0.00 in   Clear
11:05 PM 35.6 °F 32.8 °F 32.0 °F 87% 30.17 in 10.0 mi West 3.5 mph - 0.00 in   Clear
11:25 PM 35.6 °F - 32.0 °F 87% 30.17 in 10.0 mi Calm Calm - 0.00 in   Clear
11:45 PM 35.6 °F - 32.0 °F 87% 30.17 in 10.0 mi Calm Calm - 0.00 in   Clear